Погода в Утене

Погода в Утене : погода сейчас, прогноз погоды и архив. Всё, что Вы хотите узнать о погоде в Утене!

Поиск расширенной информации на нашем сайте:

Полезная информация: ветошь Спб

Другие новости

Новости СМИ2

Главная страница сайта

Новости сайта

02.10.2013

Напоминаем, что на нашем новом сайте вы можете получить высокодетализированные прогнозы погоды по пунктам России, СНГ и мира (включающие важные для авиации метеовеличины, такие как направление и скорость ветра, видимость, явления погоды, количество и форма облачности, нижняя и верхняя граница облачности), а также ознакомиться с разнообразными материалами по авиационной метеорологии и подборкой полезных ссылок на эту тему.

Сайт Метеоцентр.Азия посвящён разработке технологий оптимизации авиаметеорологического обслуживания, включая проектирование и перспективное создание нескольких автоматизированных авиаметеорологических систем:
- система выпуска высокодетальных прогностических карт явлений погоды для нижнего воздушного пространства по России и ближнему зарубежью;
- система верификации прогнозов TAF (выпускаемых синоптиками официальных АМСГ РФ и ближнего зарубежья) и AUTOTAF (выпускаемых сайтом Метеоцентр.Азия) - выявление ошибок, онлайн-сопоставление с фактической погодой METAR, автоматическое внесение коррективов в прогнозы при резком отклонении фактической погоды от прогноза, подсчёт оправдываемости прогнозов по элементам и в целом;
- система обработки, анализа и отображения авиаметеорологической информации для применения провайдерами метеорологической информации.

Рекомендуем: Дождались! Китайская мазь от геморроя теперь в Украине!

Погода в Утене - сегодня

Время (UTC), дата Ветер
(°,м/с) 
Видим.   Явления Облачность Т
(°С)
Тd
(°С)
f(%) Тe
(°С)
Pmin
(гПа)
dP
(гПа)
Po
(мм)
O2
(г/м3)
Тmin Tmax R s Состояние
почвы
06 17.02.17 230 (ЮЗ) 4-9{09}  0500 м  туман  ?/?  
+2 +1.7 98 1014.6  -1.4  751  300  -1.4      неравномерный
мокрый или
старый снег
100% 
09 17.02.17 230 (ЮЗ) 3-6{09}  1800 м  слаб. морось{туман}  10/10 200 м 
[St]
+2.4 +1.9 97 +1  1014.4  -0.2  751  300           
12 17.02.17 260 (З) 4-9{09}  11000 м  в посл. час морось{туман}  10/10 300 м 
[St]
+2.2 +1.4 94 1014.2  -0.2  751  300      0.0   
15 17.02.17 270 (З) 2-5{09}  10 км    10/10 300 м 
[St]
+2.3 +1 91 +2  1014.2  751  300           
18 17.02.17 250 (З) 2-5{06}  5000 м  слаб. дождь{морось}  10/10 300 м 
[Frnb|Ns]
+1.7 +0.9 94 +1  1014.8  0.6  751  301    +2.5  0.0   
21 17.02.17 260 (З) 1-5{07}  5000 м  слаб. дождь{морось}  10/10 300 м 
[Frnb|Ns]
+1.5 +0.7 94 +2  1015.1  0.2  751  301           
00 18.02.17 280 (З) 2-5{06}  3000 м  слаб. морось{дождь}  10/10 200 м 
[St]
+1.3 +0.8 96 +1  1015.3  0.2  752  301      0.0   
03 18.02.17 270 (З) 1-3{05}  1200 м  слаб. морось{дождь}  10/10 200 м 
[St]
+1.3 +1 98 +2  1015.3  752  301           
06 18.02.17 280 (З) 2-4{04}  0900 м  слаб. морось{дождь}  ?/?  
+1.3 +1 98 +1  1016.5  1.2  752  302  +1.2    0.2  неравномерный
мокрый или
старый снег
100% 
09 18.02.17 300 (СЗ) 2-4{06}  15000 м  {дождь, морось}  10/10 300 м 
[St]
+1.3 +1 98 +1  1017.8  1.3  753  302           
12 18.02.17 290 (З) 3-5{06}  20000 м  {дождь, морось}  9/9 300 м 
[St]
+2.1 +0.2 87 +1  1018.3  0.5  754  301      0.0   
15 18.02.17 280 (З) 3-6{06}  20000 м    10/10 300 м 
[St]
+1.5 -0.7 85 1018.9  0.6  754  302           
18 18.02.17 170 (Ю) 1-2{07}  10 км    9/9 300 м 
[St]
+1.1 -0.3 90 +2  1019.1  0.2  754  303    +2.3  0.0   
21 18.02.17 240 (ЮЗ) 4-8{09}  6000 м  дымка  10/10 200 м 
[St]
+0.7 -0.1 94 -2  1019.4  0.2  755  303           
00 19.02.17 240 (ЮЗ) 4-9{09}  11000 м  слаб. дождь{морось}  10/10 200 м 
[Frnb|Ns]
+0.4 -0.2 96 -2  1018.8  -0.6  754  303      0.0   
03 19.02.17 240 (ЮЗ) 4-10{10}  14000 м  слаб. морось{дождь}  10/10 200 м 
[St]
+1.5 -0.2 88 -1  1017.1  -1.6  753  302           
06 19.02.17 240 (ЮЗ) 5-10{11}  9000 м  слаб. дождь{морось}  10/10 200 м 
[Frnb|Ns]
+1.3 -0.1 90 -1  1015.9  -1.2  752  302  +0.2    0.0  неравномерный
мокрый или
старый снег
100% 
09 19.02.17 240 (ЮЗ) 5-10{12}  20000 м  в посл. час дождь{морось}  10/10 300 м 
[St]
+1.6 -0.6 85 -1  1015.1  -0.8  751  301           
12 19.02.17 210 (ЮЗ) 5-11{12}  8000 м  слаб. снег{дождь}  10/10 300 м 
[Frnb|Ns]
+1.4 -0.3 88 -1  1013.1  -1.9  750  301      0.0   
15 19.02.17 220 (ЮЗ) 5-10{11}  15000 м  слаб. дождь{снег}  10/10 300 м 
[Frnb|Ns]
+1.3 -0.1 90 -1  1011.8  -1.3  749  300           
18 19.02.17 220 (ЮЗ) 5-11{13}  13000 м  слаб. дождь{снег}  10/10 300 м 
[Frnb|Ns]
+1.5 +0.1 90 -1  1011  -0.8  748  300    +1.9  0.9  <0.5   
21 19.02.17 240 (ЮЗ) 4-10{11}  5000 м  слаб. морось{дождь}  10/10 300 м 
[St]
+2.2 +0.9 91 1010.5  -0.5  748  299           
00 20.02.17 230 (ЮЗ) 5-9{10}  3100 м  слаб. морось{дождь}  10/10 300 м 
[St]
+2.3 +1.3 93 1009.2  -1.2  747  298      0.0  <0.5   
03 20.02.17 240 (ЮЗ) 3-7{11}  2200 м  слаб. морось  10/10 300 м 
[St]
+2.2 +1.4 94 +1  1008.2  -1  746  298           
06 20.02.17 230 (ЮЗ) 4-8{10}  3300 м  слаб. морось{дождь}  10/10 300 м 
[St]
+2.2 +1.4 94 1006.5  -1.7  745  298  +1.5    0.0  мокрый или
старый снег
10-40% 
Время (UTC), дата Ветер
(°,м/с) 
Видим.   Явления Облачность Т
(°С)
Тd
(°С)
f(%) Тe
(°С)
Pmin
(гПа)
dP
(гПа)
Po
(мм)
O2
(г/м3)
Тmin Tmax R s Состояние
почвы

Для получения пояснительной информации подведите курсор к названию столбца.

ПОГОДА в Утене - архив

Всё, что Вы хотите узнать о погоде в Утене - удобно и подробно!

Выберите нужную дату (начиная с 1 января 2015* года) и нажмите кнопку "Найти".
Будут отображены архивные сводки погоды по пункту Утена, начиная с указанной даты.


Отображать данные в формате CSV (для использования в таблицах Excel)


Внимание! Наш архив погоды предназначен исключительно для личного некоммерческого использования в познавательных целях. Если Вам необходимы официальные справки о состоянии погоды (для производственных, юридических, коммерческих и т.п. целей), обращайтесь в органы Росгидромета.

*Примечание: данная дата относится к архиву по метеостанциям СССР (Россия, СНГ, Балтия).
Архив по метеостанциям Зарубежной Европы и Азии (кроме Китая) хранится 10 дней, по другим регионам земного шара (Китай, Африка, Америка, Австралия, Океания) - 1 день.

Утена - район местоположения метеостанции


Название, широта, долгота, высота метеостанции:
Утена 55.5°ш. 25.6°д. 106 м над ур. моря [Литва]

Дополнительная информация

В oтличие oт бoльшинства пoгoдных сайтoв мы публикуем пoдрoбную метеoинфoрмацию в детальнoм прoфессиoнальнoм фoрмате.

Характеристики температуры и влажнoсти вoздуха измеряются на высoте 2 м в тени вдали oт зданий и деревьев.
Скoрoсть ветра измеряется на высoте 10 м (на урoвне рoста челoвека скoрoсть ветра ниже в 1.5-2 раза). Если метеoстанция нахoдится в гoрoде или в лесу, тo скoрoсть ветра занижена на 2-4 м/с пo сравнению с oткрытым местoм. Скoрoсть ветра над акватoриями крупных рек и oзёр, а также на вершинах хoлмoв на 2-5 м/с выше, чем в oбычных услoвиях.
Атмoсфернoе давление в разных тoчках местнoсти мoжет значительнo oтличаться oт давления на метеoстанции, в зависимoсти oт услoвий рельефа (при пoдъёме на 10 м давление пoнижается примернo на 1 мм рт.ст.).